FW7362 Weather Reports


time (UTC)temp
F
wind
direction
speed
knots
gust
knots
rain 1hr
in
rain 24hr
in
rain mn
in
humidity
%
barometer
mb
20260504014321 51 319 3.5 3.5 0.00 0.00 0.00 59 1014.7
20260504013819 50 332 2.6 3.5 0.00 0.00 0.00 59 1014.5
20260504013316 51 340 0.9 0.9 0.00 0.00 0.00 60 1014.7
20260504012813 52 350 0.9 1.7 0.00 0.00 0.00 58 1014.7
20260504012311 52 348 0.9 1.7 0.00 0.00 0.00 56 1014.5
20260504011808 53 325 1.7 1.7 0.00 0.00 0.00 55 1014.6
20260504011304 53 307 2.6 3.5 0.00 0.00 0.00 54 1014.5
20260504010800 53 318 2.6 5.2 0.00 0.00 0.00 54 1014.6
20260504010255 54 310 2.6 2.6 0.00 0.00 0.00 54 1014.7
20260504005753 53 288 3.5 6.1 0.00 0.00 0.00 53 1014.3
20260504005249 53 281 4.3 6.1 0.00 0.00 0.00 53 1014.6
20260504004747 54 296 2.6 3.5 0.00 0.00 0.00 53 1014.3
20260504004244 54 285 3.5 5.2 0.00 0.00 0.00 53 1014.4
20260504003741 54 233 1.7 6.1 0.00 0.00 0.00 53 1014.4
20260504003238 54 330 2.6 5.2 0.00 0.00 0.00 52 1014.3
20260504002734 54 285 5.2 7.8 0.00 0.00 0.00 51 1014.3
20260504002231 54 274 2.6 5.2 0.00 0.00 0.00 52 1014.5
20260504001729 54 263 5.2 6.1 0.00 0.00 0.00 52 1014.5
20260504001226 54 273 4.3 6.1 0.00 0.00 0.00 52 1014.4
20260504000722 55 352 0.9 3.5 0.00 0.00 0.00 53 1014.4
20260504000219 55 297 3.5 5.2 0.00 0.00 0.00 51 1014.5
20260503235718 55 348 2.6 5.2 0.00 0.00 0.00 52 1014.5
20260503235215 55 336 1.7 5.2 0.00 0.00 0.00 52 1014.6
20260503234712 55 279 2.6 6.1 0.00 0.00 0.00 51 1014.5
20260503234210 55 325 4.3 6.1 0.00 0.00 0.00 51 1014.3
20260503233707 56 328 0.9 3.5 0.00 0.00 0.00 49 1014.4
20260503233203 55 257 7.0 7.8 0.00 0.00 0.00 48 1014.4
20260503232700 56 223 5.2 11.3 0.00 0.00 0.00 48 1014.3
20260503232157 56 278 4.3 7.0 0.00 0.00 0.00 49 1014.5
20260503231655 56 318 1.7 7.0 0.00 0.00 0.00 49 1014.3
20260503231151 56 323 2.6 5.2 0.00 0.00 0.00 47 1014.4
20260503230648 56 336 2.6 6.1 0.00 0.00 0.00 46 1014.4
20260503230145 57 267 7.8 8.7 0.00 0.00 0.00 46 1014.3
20260503225642 57 278 3.5 9.6 0.00 0.00 0.00 46 1014.3
20260503225142 57 256 5.2 7.8 0.00 0.00 0.00 47 1014.4
20260503224640 57 287 1.7 5.2 0.00 0.00 0.00 47 1014.4
20260503224138 58 270 5.2 11.3 0.00 0.00 0.00 44 1014.4
20260503223636 58 254 4.3 6.1 0.00 0.00 0.00 47 1014.3
20260503223131 57 273 1.7 5.2 0.00 0.00 0.00 47 1014.4
20260503222629 57 246 5.2 7.8 0.00 0.00 0.00 47 1014.5
20260503222126 57 315 1.7 7.8 0.00 0.00 0.00 46 1014.4
20260503221625 57 329 0.9 2.6 0.00 0.00 0.00 47 1014.4
20260503221122 57 286 4.3 6.1 0.00 0.00 0.00 46 1014.5
20260503220618 59 323 3.5 8.7 0.00 0.00 0.00 45 1014.7
20260503220115 60 323 4.3 7.8 0.00 0.00 0.00 46 1014.4
20260503215612 59 342 0.9 2.6 0.00 0.00 0.00 46 1014.2
20260503215109 57 348 3.5 5.2 0.00 0.00 0.00 46 1014.7
20260503214607 57 340 1.7 9.6 0.00 0.00 0.00 48 1014.5
20260503214103 57 252 6.1 9.6 0.00 0.00 0.00 46 1014.3
20260503213602 58 253 7.0 13.9 0.00 0.00 0.00 45 1014.3
20260503213058 59 262 5.2 7.8 0.00 0.00 0.00 44 1014.2
20260503212556 58 238 4.3 7.8 0.00 0.00 0.00 45 1014.2
20260503212053 58 287 7.8 9.6 0.00 0.00 0.00 45 1014.3
20260503211550 58 245 7.0 7.8 0.00 0.00 0.00 43 1014.2
20260503211045 58 227 5.2 13.0 0.00 0.00 0.00 44 1014.3
20260503210542 59 270 6.1 8.7 0.00 0.00 0.00 43 1014.3
20260503210038 58 345 7.8 9.6 0.00 0.00 0.00 44 1014.2
20260503205535 59 332 1.7 2.6 0.00 0.00 0.00 47 1014.2
20260503205032 58 314 2.6 7.8 0.00 0.00 0.00 45 1014.5
20260503204528 59 301 3.5 11.3 0.00 0.00 0.00 45 1014.5
20260503204025 60 274 1.7 3.5 0.00 0.00 0.00 48 1014.4
20260503203523 60 246 5.2 6.1 0.00 0.00 0.00 45 1014.7
20260503203020 58 311 3.5 12.2 0.00 0.00 0.00 45 1014.7
20260503202518 57 329 1.7 3.5 0.00 0.00 0.00 48 1014.7
20260503202015 57 8 0.9 9.6 0.00 0.00 0.00 45 1014.9
20260503201514 59 255 5.2 13.9 0.00 0.00 0.00 46 1014.8
20260503201010 58 302 7.0 8.7 0.00 0.00 0.00 46 1015.0
20260503200506 59 297 8.7 12.2 0.00 0.00 0.00 45 1015.0
20260503200003 59 226 5.2 9.6 0.00 0.00 0.00 46 1015.2
20260503195500 58 300 4.3 7.8 0.00 0.00 0.00 45 1015.1
20260503194957 58 218 3.5 7.8 0.00 0.00 0.00 47 1015.2
20260503194455 58 316 3.5 8.7 0.00 0.00 0.00 48 1015.3
20260503193949 58 343 2.6 6.1 0.00 0.00 0.00 52 1015.4
20260503193445 56 337 1.7 6.1 0.00 0.00 0.00 52 1015.6
20260503192940 56 336 1.7 6.1 0.00 0.00 0.00 51 1015.8
20260503192437 57 315 4.3 13.0 0.00 0.00 0.00 47 1015.9
20260503191933 57 258 6.1 7.8 0.00 0.00 0.00 49 1015.5
20260503191431 58 350 2.6 12.2 0.00 0.00 0.00 47 1016.0
20260503190927 57 264 2.6 6.1 0.00 0.00 0.00 54 1016.0
20260503190424 57 221 10.4 13.9 0.00 0.00 0.00 46 1015.9
20260503185921 58 254 5.2 7.0 0.00 0.00 0.00 49 1016.1
20260503185418 57 307 4.3 7.8 0.00 0.00 0.00 51 1016.2
20260503184916 56 279 7.0 8.7 0.00 0.00 0.00 49 1016.1
20260503184414 56 251 6.1 9.6 0.00 0.00 0.00 50 1016.1
20260503183910 57 266 7.8 11.3 0.00 0.00 0.00 49 1016.0
20260503183407 57 313 6.1 12.2 0.00 0.00 0.00 52 1016.0
20260503182904 56 230 5.2 8.7 0.00 0.00 0.00 50 1016.3
20260503182403 57 317 3.5 5.2 0.00 0.00 0.00 48 1016.3
20260503181859 58 356 3.5 7.8 0.00 0.00 0.00 52 1016.3
20260503181356 57 340 2.6 8.7 0.00 0.00 0.00 54 1016.6
20260503180852 57 338 3.5 7.8 0.00 0.00 0.00 50 1016.3
20260503180351 57 313 3.5 6.1 0.00 0.00 0.00 53 1016.6
20260503175847 56 244 7.0 7.8 0.00 0.00 0.00 52 1016.5
20260503175345 55 331 2.6 9.6 0.00 0.00 0.00 53 1016.8
20260503174841 55 333 2.6 9.6 0.00 0.00 0.00 53 1016.8
20260503174340 56 280 5.2 8.7 0.00 0.00 0.00 48 1016.7
20260503173839 55 337 5.2 12.2 0.00 0.00 0.00 50 1016.6
20260503173336 56 254 5.2 8.7 0.00 0.00 0.00 51 1016.9
20260503172833 55 288 4.3 7.8 0.00 0.00 0.00 49 1016.9
20260503172331 55 316 1.7 6.1 0.00 0.00 0.00 54 1016.9
20260503171832 55 323 2.6 13.0 0.00 0.00 0.00 53 1016.8
20260503171329 55 329 2.6 7.0 0.00 0.00 0.00 49 1017.0
20260503170826 55 308 2.6 7.8 0.00 0.00 0.00 54 1017.0
20260503170322 54 278 7.0 8.7 0.00 0.00 0.00 51 1017.1
20260503150715 51 295 6.1 8.7 0.00 0.00 0.00 55 1017.9
20260503150211 50 268 6.1 12.2 0.00 0.00 0.00 54 1017.9
20260503140135 47 250 6.1 7.8 0.00 0.00 0.00 65 1018.2
20260503131105 45 15 3.5 7.8 0.00 0.00 0.00 71 1018.3
20260503130602 45 4 1.7 6.1 0.00 0.00 0.00 72 1018.4
20260503110452 33 347 0.9 0.9 0.00 0.00 0.00 99 1017.6
20260503090338 29 6 0.0 0.0 0.00 0.00 0.00 99 1017.1
20260503081305 29 6 0.0 0.0 0.00 0.00 0.00 99 1017.0
20260503080801 29 6 0.0 0.0 0.00 0.00 0.00 99 1017.2
20260503080259 30 6 0.0 0.0 0.00 0.00 0.00 99 1017.4
20260503072736 30 6 0.0 0.0 0.00 0.00 0.00 98 1017.1
20260503072232 30 6 0.0 0.0 0.00 0.00 0.00 98 1017.3
20260503071728 30 6 0.0 0.0 0.00 0.00 0.00 98 1017.4
20260503071226 30 6 0.0 0.0 0.00 0.00 0.00 98 1017.3
20260503070722 31 6 0.0 0.0 0.00 0.00 0.00 97 1017.3
20260503070220 31 5 0.0 0.0 0.00 0.00 0.00 97 1017.2
20260503060145 34 359 0.0 0.0 0.00 0.00 0.00 97 1017.3
20260503054632 35 358 0.0 0.0 0.00 0.00 0.00 98 1017.5
20260503054129 35 358 0.0 0.0 0.00 0.00 0.00 98 1017.5
20260503053627 35 357 0.0 0.0 0.00 0.00 0.00 97 1017.5
20260503053126 35 356 0.0 0.0 0.00 0.00 0.00 97 1017.5
20260503052621 35 350 0.9 0.9 0.00 0.00 0.00 97 1017.5
20260503052118 35 350 0.9 0.9 0.00 0.00 0.00 97 1017.7
20260503051613 35 358 0.0 0.0 0.00 0.00 0.00 97 1017.6
20260503051112 35 359 0.0 0.0 0.00 0.00 0.00 96 1017.6
20260503050608 35 359 0.0 0.0 0.00 0.00 0.00 96 1017.8
20260503050105 35 359 0.0 0.0 0.00 0.00 0.00 96 1017.8
20260503045601 35 359 0.0 0.0 0.00 0.00 0.00 97 1017.8
20260503045059 35 0 0.0 0.0 0.00 0.00 0.00 97 1017.8
20260503044555 35 0 0.0 0.0 0.00 0.00 0.00 97 1017.7
20260503044053 35 0 0.0 0.0 0.00 0.00 0.00 97 1017.8
20260503043549 35 0 0.0 0.0 0.00 0.00 0.00 97 1017.7
20260503043046 35 0 0.0 0.0 0.00 0.00 0.00 97 1017.6
20260503042543 35 0 0.0 0.0 0.00 0.00 0.00 97 1017.7
20260503042039 35 0 0.0 0.0 0.00 0.00 0.00 97 1017.8
20260503041536 35 0 0.0 0.0 0.00 0.00 0.00 96 1017.6
20260503041034 35 0 0.0 0.0 0.00 0.00 0.00 96 1017.9
20260503040531 35 0 0.0 0.0 0.00 0.00 0.00 96 1017.7
20260503040028 35 0 0.0 0.0 0.00 0.01 0.01 96 1017.8
20260503035525 35 358 0.0 0.0 0.00 0.01 0.01 95 1017.8
20260503035022 35 353 0.9 0.9 0.00 0.01 0.01 95 1017.9
20260503034519 36 0 0.9 0.9 0.00 0.01 0.01 95 1017.9
20260503034016 36 0 0.0 0.0 0.00 0.01 0.01 94 1017.7
20260503033514 36 1 0.0 0.0 0.00 0.01 0.01 94 1017.8
20260503033011 36 0 0.0 0.0 0.00 0.01 0.01 93 1017.9
20260503032510 35 2 0.0 0.0 0.00 0.01 0.01 93 1017.7
20260503032008 36 2 0.0 0.0 0.00 0.01 0.01 93 1017.9
20260503031505 36 2 0.0 0.0 0.00 0.01 0.01 92 1017.8
20260503031001 36 2 0.0 0.0 0.00 0.01 0.01 92 1017.8
20260503030458 36 2 0.0 0.0 0.00 0.01 0.01 92 1018.0
20260503025955 35 2 0.0 0.0 0.00 0.01 0.01 92 1017.9
20260503025451 35 2 0.0 0.0 0.00 0.01 0.01 92 1017.7
20260503024949 35 2 0.0 0.0 0.00 0.01 0.01 91 1018.0
20260503024445 35 2 0.0 0.0 0.00 0.01 0.01 91 1018.0
20260503023943 36 2 0.0 0.0 0.00 0.01 0.01 91 1018.1
20260503023440 36 2 0.0 0.0 0.00 0.01 0.01 91 1018.1
20260503022936 36 2 0.0 0.0 0.00 0.01 0.01 90 1018.2
20260503022431 37 2 0.0 0.0 0.00 0.01 0.01 90 1018.1
20260503021928 37 2 0.0 0.0 0.00 0.01 0.01 91 1018.2
20260503021424 37 1 0.0 0.0 0.00 0.01 0.01 91 1018.0
20260503020922 37 1 0.0 0.0 0.00 0.01 0.01 92 1018.0
20260503020419 37 1 0.0 0.0 0.00 0.01 0.01 92 1018.0
20260503015915 37 1 0.0 0.0 0.00 0.01 0.01 91 1017.9
20260503015413 37 1 0.0 0.0 0.00 0.01 0.01 92 1017.9
20260503014908 37 2 0.0 0.0 0.00 0.01 0.01 92 1017.8